Tracking 25710 objects as of 5-Jul-2022
HD Live streaming from Space Station
objects crossing your sky now

FENGYUN 1C DEB

Track FENGYUN 1C DEB now!
10-day predictions


NORAD ID: 35207
Int'l Code: 1999-025DPP
Perigee: 731.6 km
Apogee: 843.8 km
Inclination: 98.8 °
Period: 100.5 minutes
Semi major axis: 7158 km
RCS: 0.0073 m2 (small)
Launch date: May 10, 1999
Source: People's Republic of China (PRC)
Launch site: Taiyaun Space Center, China (TSC)

Note: This is SATELLITE DEBRIS
aabbcc
Your satellite tracking list
Your tracking list is empty




NASA's NSSDC Master Catalog

Two Line Element Set (TLE):
1 35207U 99025DPP 22185.62039818  .00001558  00000-0  56216-3 0  9999
2 35207  98.7720 240.6549 0078354  50.7064 310.1034 14.33350404467883
Source of the keplerian elements: AFSPC